Cloud_Cover
0 0 0 2 0 3 0 0 0 77 10 0 0 54 5 99 98 19 85 86 22 17
0 18 9 0 0 0 0 0 38 1 0 0 5 73 3 27 11 92 100 70 61 18
0 0 0 0 0 0 0 0 0 0 0 0 16 13 35 52 85 100 62 98 38 16
0 0 0 0 0 2 0 0 0 0 0 0 11 39 52 58 96 37 61 84 70 59
0 0 0 0 0 0 0 0 0 0 0 0 38 5 54 94 100 53 66 99 92 71
0 0 0 0 0 0 0 1 0 0 0 8 5 43 96 100 95 76 23 61 99 98
0 0 0 0 0 0 0 0 0 3 1 14 6 81 100 56 100 100 81 86 48 40
0 0 0 0 0 0 0 0 0 25 12 46 31 74 100 97 99 100 100 83 88 60
0 0 0 0 0 0 0 1 95 83 40 66 81 100 100 100 100 100 100 100 100 100
21 0 34 1 2 5 5 89 100 59 96 12 100 100 100 100 100 100 100 100 100 100
18 0 15 4 14 5 57 100 100 100 8 74 100 100 100 100 100 100 100 100 100 100
0 1 53 51 23 5 97 100 100 89 90 78 100 100 100 100 100 100 100 100 100 99
0 0 5 5 5 5 25 18 100 56 100 100 100 100 100 100 100 100 100 100 100 100
3 5 5 6 38 5 5 100 100 51 97 99 100 100 100 100 100 100 100 100 100 100